Ely, MN

2:35 AM CDT on July 27, 2017 (GMT -0500)
Ely Municipal

Weather History for KELO - May, 2015

Change the Weather History Date:

Sunday, May 10, 2015

  Actual Average Record
Temperature  
Mean Temperature 43 °F -  
Max Temperature 53 °F 58 °F 82 °F (2007)
Min Temperature 33 °F 35 °F 21 °F (2013)
Degree Days  
Heating Degree Days 22    
Moisture  
Dew Point 31 °F    
Average Humidity 65    
Maximum Humidity 93    
Minimum Humidity 35    
Precipitation  
Precipitation 0.03 in - - ()
Sea Level Pressure  
Sea Level Pressure 30.19 in    
Wind  
Wind Speed 7 mph (East)    
Max Wind Speed 18 mph    
Max Gust Speed 23 mph    
Visibility 10 miles    
Events Rain    
Averages and records for this station are not official NWS values.
T = Trace of Precipitation, MM = Missing Value Source: NWS Daily Summary

Daily Weather History Graph

Daily Weather History Graph

Search for Another Location

Airport or City:

Trip Planner

Search our weather history database for the weather conditions in past years. The results will help you decide how hot, cold, wet, or windy it might be!

Date:

Astronomy

May. 10, 2015 Rise Set
Actual Time 5:36 AM CDT 8:32 PM CDT
Civil Twilight 5:00 AM CDT 9:08 PM CDT
Nautical Twilight 4:14 AM CDT 9:54 PM CDT
Astronomical Twilight 3:18 AM CDT 10:51 PM CDT
Moon 1:25 AM CDT (5/10) 11:37 AM CDT (5/10)
Length of Visible Light 16h 07m
Length of Day
14h 55m
Waning Gibbous, 58% of the Moon is Illuminated
May 10
Waning Gibbous
May 11
Last Quarter
May 17
New
May 25
First Quarter
Jun 2
Full

Hourly Weather History & Observations

Time (CDT) Temp. Windchill Dew Point Humidity Pressure Visibility Wind Dir Wind Speed Gust Speed Precip Events Conditions
12:13 AM 33.8 °F - 30.2 °F 87% 30.25 in 10.0 mi Calm Calm - N/A   Scattered Clouds
12:32 AM 33.8 °F - 30.2 °F 87% 30.25 in 10.0 mi Calm Calm - N/A   Mostly Cloudy
12:53 AM 37.4 °F 34.9 °F 33.8 °F 87% 30.24 in 10.0 mi NNE 3.5 mph - N/A   Mostly Cloudy
1:13 AM 39.2 °F 33.6 °F 33.8 °F 81% 30.25 in 10.0 mi East 8.1 mph - N/A   Overcast
1:32 AM 37.4 °F 34.9 °F 33.8 °F 87% 30.25 in 10.0 mi East 3.5 mph - N/A   Mostly Cloudy
1:53 AM 37.4 °F 34.9 °F 33.8 °F 87% 30.26 in 10.0 mi East 3.5 mph - N/A   Mostly Cloudy
2:13 AM 37.4 °F - 33.8 °F 87% 30.27 in 10.0 mi Calm Calm - N/A   Overcast
2:32 AM 37.4 °F - 33.8 °F 87% 30.26 in 10.0 mi Calm Calm - N/A   Overcast
2:53 AM 37.4 °F 34.9 °F 33.8 °F 87% 30.27 in 10.0 mi ENE 3.5 mph - N/A   Overcast
3:13 AM 37.4 °F 32.8 °F 33.8 °F 87% 30.26 in 10.0 mi ENE 5.8 mph - N/A   Overcast
3:33 AM 39.2 °F 33.6 °F 33.8 °F 81% 30.25 in 10.0 mi ENE 8.1 mph - N/A   Scattered Clouds
3:53 AM 39.2 °F 33.6 °F 33.8 °F 81% 30.25 in 10.0 mi ENE 8.1 mph - N/A   Scattered Clouds
4:12 AM 39.2 °F 35.0 °F 33.8 °F 81% 30.26 in 10.0 mi ENE 5.8 mph - N/A   Mostly Cloudy
4:33 AM 39.2 °F 35.9 °F 33.8 °F 81% 30.26 in 10.0 mi ENE 4.6 mph - N/A   Mostly Cloudy
4:53 AM 39.2 °F 35.0 °F 32.0 °F 75% 30.26 in 10.0 mi ENE 5.8 mph - N/A   Mostly Cloudy
5:12 AM 39.2 °F 35.9 °F 30.2 °F 70% 30.26 in 10.0 mi ENE 4.6 mph - N/A   Overcast
5:33 AM 39.2 °F 37.0 °F 30.2 °F 70% 30.27 in 10.0 mi NE 3.5 mph - N/A   Overcast
5:53 AM 37.4 °F 33.8 °F 30.2 °F 75% 30.27 in 10.0 mi ENE 4.6 mph - N/A   Mostly Cloudy
6:13 AM 37.4 °F 31.4 °F 30.2 °F 75% 30.27 in 10.0 mi ENE 8.1 mph - N/A   Clear
6:32 AM 39.2 °F 35.0 °F 30.2 °F 70% 30.28 in 10.0 mi ENE 5.8 mph - N/A   Clear
6:53 AM 39.2 °F 35.0 °F 30.2 °F 70% 30.29 in 10.0 mi East 5.8 mph - N/A   Clear
7:13 AM 39.2 °F 32.5 °F 30.2 °F 70% 30.29 in 10.0 mi ENE 10.4 mph - N/A   Clear
7:53 AM 39.2 °F 33.6 °F 30.2 °F 70% 30.28 in 10.0 mi ENE 8.1 mph - N/A   Clear
8:12 AM 39.2 °F 33.6 °F 30.2 °F 70% 30.28 in 10.0 mi East 8.1 mph - N/A   Clear
8:33 AM 41.0 °F 34.7 °F 28.4 °F 61% 30.28 in 10.0 mi ENE 10.4 mph 17.3 mph N/A   Clear
8:53 AM 42.8 °F 36.6 °F 28.4 °F 57% 30.27 in 10.0 mi East 11.5 mph - N/A   Clear
9:12 AM 42.8 °F 35.8 °F 28.4 °F 57% 30.26 in 10.0 mi East 13.8 mph 17.3 mph N/A   Clear
9:33 AM 42.8 °F 35.1 °F 28.4 °F 57% 30.25 in 10.0 mi ENE 16.1 mph 20.7 mph N/A   Scattered Clouds
9:53 AM 44.6 °F 38.1 °F 28.4 °F 53% 30.24 in 10.0 mi East 13.8 mph 18.4 mph N/A   Scattered Clouds
10:12 AM 44.6 °F 38.1 °F 28.4 °F 53% 30.23 in 10.0 mi East 13.8 mph 18.4 mph N/A   Clear
10:33 AM 44.6 °F 38.8 °F 28.4 °F 53% 30.23 in 10.0 mi ENE 11.5 mph 17.3 mph N/A   Clear
10:53 AM 46.4 °F 40.7 °F 26.6 °F 46% 30.24 in 10.0 mi East 12.7 mph 19.6 mph N/A   Clear
11:12 AM 46.4 °F 41.5 °F 26.6 °F 46% 30.23 in 10.0 mi East 10.4 mph 19.6 mph N/A   Clear
11:33 AM 48.2 °F - 26.6 °F 43% 30.22 in 10.0 mi ENE 9.2 mph 19.6 mph N/A   Clear
11:52 AM 48.2 °F - 24.8 °F 40% 30.20 in 10.0 mi East 12.7 mph 21.9 mph N/A   Clear
12:13 PM 48.2 °F - 24.8 °F 40% 30.19 in 10.0 mi East 18.4 mph 23.0 mph N/A   Clear
12:30 PM 50.0 °F - 24.8 °F 37% 30.18 in 10.0 mi ESE 10.4 mph 20.7 mph N/A   Clear
12:53 PM 51.8 °F - 24.8 °F 35% 30.15 in 10.0 mi East 10.4 mph 16.1 mph N/A   Clear
1:12 PM 51.8 °F - 26.6 °F 38% 30.14 in 10.0 mi ENE 12.7 mph 23.0 mph N/A   Clear
1:33 PM 51.8 °F - 26.6 °F 38% 30.13 in 10.0 mi East 13.8 mph 23.0 mph N/A   Clear
1:53 PM 53.6 °F - 28.4 °F 38% 30.15 in 10.0 mi East 10.4 mph - N/A   Clear
2:13 PM 53.6 °F - 30.2 °F 41% 30.14 in 10.0 mi ESE 15.0 mph 19.6 mph N/A   Clear
2:33 PM 53.6 °F - 30.2 °F 41% 30.14 in 10.0 mi ESE 18.4 mph 21.9 mph N/A   Clear
2:53 PM 51.8 °F - 30.2 °F 44% 30.15 in 10.0 mi ESE 9.2 mph 12.7 mph N/A   Clear
3:13 PM 53.6 °F - 32.0 °F 44% 30.14 in 10.0 mi ESE 16.1 mph 21.9 mph N/A   Clear
3:32 PM 51.8 °F - 32.0 °F 47% 30.13 in 10.0 mi ESE 13.8 mph 18.4 mph N/A   Clear
3:52 PM 50.0 °F - 32.0 °F 50% 30.13 in 10.0 mi ESE 16.1 mph 19.6 mph N/A   Clear
4:13 PM 50.0 °F - 32.0 °F 50% 30.14 in 10.0 mi SE 15.0 mph - N/A   Clear
4:33 PM 48.2 °F - 32.0 °F 54% 30.15 in 10.0 mi ESE 8.1 mph 11.5 mph N/A   Mostly Cloudy
4:52 PM 48.2 °F - 32.0 °F 54% 30.14 in 10.0 mi East 9.2 mph - N/A   Mostly Cloudy
5:13 PM 46.4 °F 41.9 °F 32.0 °F 57% 30.16 in 10.0 mi SE 9.2 mph - N/A   Mostly Cloudy
5:33 PM 46.4 °F 41.9 °F 32.0 °F 57% 30.16 in 10.0 mi ESE 9.2 mph - N/A   Scattered Clouds
5:52 PM 46.4 °F 42.4 °F 32.0 °F 57% 30.16 in 10.0 mi East 8.1 mph - N/A   Mostly Cloudy
6:13 PM 44.6 °F 38.8 °F 30.2 °F 57% 30.13 in 10.0 mi East 11.5 mph - N/A   Scattered Clouds
6:33 PM 44.6 °F 37.2 °F 30.2 °F 57% 30.09 in 10.0 mi East 17.3 mph - N/A   Scattered Clouds
6:52 PM 42.8 °F 36.6 °F 30.2 °F 61% 30.12 in 10.0 mi ESE 11.5 mph 17.3 mph N/A Rain Rain
7:13 PM 41.0 °F 34.3 °F 30.2 °F 65% 30.11 in 10.0 mi East 11.5 mph - N/A   Light Drizzle
7:33 PM 39.2 °F 33.0 °F 30.2 °F 70% 30.11 in 10.0 mi East 9.2 mph - N/A   Clear
7:52 PM 39.2 °F 33.6 °F 28.4 °F 65% 30.11 in 10.0 mi East 8.1 mph - N/A   Clear
8:13 PM 39.2 °F 33.0 °F 28.4 °F 65% 30.10 in 10.0 mi East 9.2 mph - N/A   Mostly Cloudy
8:33 PM 41.0 °F 35.2 °F 30.2 °F 65% 30.09 in 10.0 mi East 9.2 mph - N/A   Overcast
8:53 PM 41.0 °F 35.8 °F 30.2 °F 65% 30.07 in 10.0 mi ENE 8.1 mph - N/A   Overcast
9:12 PM 41.0 °F 35.8 °F 30.2 °F 65% 30.08 in 10.0 mi East 8.1 mph - N/A   Overcast
9:33 PM 42.8 °F 37.0 °F 32.0 °F 66% 30.08 in 10.0 mi East 10.4 mph - N/A Rain Light Rain
9:53 PM 39.2 °F 33.0 °F 33.8 °F 81% 30.08 in 10.0 mi East 9.2 mph 18.4 mph N/A Rain Light Rain
10:12 PM 39.2 °F 33.0 °F 35.6 °F 87% 30.09 in 7.0 mi East 9.2 mph 18.4 mph N/A Rain Rain
10:33 PM 39.2 °F 32.5 °F 35.6 °F 87% 30.08 in 3.0 mi East 10.4 mph - N/A Rain Rain
10:53 PM 37.4 °F 31.4 °F 35.6 °F 93% 30.06 in 5.0 mi ENE 8.1 mph - N/A Rain Rain
11:12 PM 37.4 °F 30.8 °F 35.6 °F 93% 30.04 in 10.0 mi ENE 9.2 mph - 0.02 in Rain Light Rain
11:33 PM 37.4 °F 30.8 °F 35.6 °F 93% 30.03 in 10.0 mi ENE 9.2 mph 16.1 mph 0.02 in   Drizzle
11:53 PM 37.4 °F 32.1 °F 35.6 °F 93% 30.03 in 10.0 mi ENE 6.9 mph - 0.03 in Rain Rain